Meteo Giornale » Osservazioni meteo Uganda » Entebbe
ore: 22:30 - Osservazioni Meteo Entebbe
Lat. 0° 3' N Lon. 32° 27' E Alt. 1155 metri s.l.m.
23 °C
Sereno
Temp. 24 Ore
22 °C
28 °C
Ovest
9.3 Km/h
Dew point 19 °C
Umidità 78 %
Visibilità 10 Km
Il sole sorge alle ore 06:46
Il sole tramonta alle ore 18:53
| Data e Ora | Cielo e Fenomeni | T °C | DP °C | Um. % | Pres. hPa | Vis. km | Vento km/h | |
|---|---|---|---|---|---|---|---|---|
| Oggi h: 22:30 | Sereno | 23 | 19 | 78 | 1018 | 10 | O 9.3 | |
| Oggi h: 22:00 | Sereno | 23 | 18 | 73 | 1018 | 10 | O/SO 9.3 | |
| Oggi h: 21:30 | Sereno | 24 | 17 | 64 | 1018 | 10 | O/SO 11.1 | |
| Oggi h: 21:00 | Sereno | 24 | 17 | 64 | 1017 | 10 | O/SO 11.1 | |
| Oggi h: 20:30 | Poco Nuvoloso | 24 | 18 | 69 | 1017 | 10 | SO 11.1 | |
| Oggi h: 20:00 | Poco Nuvoloso | 24 | 18 | 69 | 1017 | 10 | SO 11.1 | |
| Oggi h: 19:30 | Poco Nuvoloso | 25 | 18 | 65 | 1017 | 10 | S 11.1 | |
| Oggi h: 19:00 | Poco Nuvoloso | 25 | 18 | 65 | 1017 | 10 | S 11.1 | |
| Oggi h: 18:30 | Poco Nuvoloso | 26 | 16 | 54 | 1017 | 10 | S/SO 11.1 | |
| Oggi h: 18:00 | Poco Nuvoloso | 27 | 17 | 54 | 1017 | 10 | S/SO 18.5 | |
| Oggi h: 17:30 | Poco Nuvoloso | 27 | 17 | 54 | 1017 | 10 | S/SO 18.5 | |
| Oggi h: 17:00 | Poco Nuvoloso | 27 | 18 | 57 | 1017 | 10 | S/SO 18.5 | |
| Oggi h: 16:00 | Poco Nuvoloso | 28 | 18 | 54 | 1018 | 10 | S 18.5 | |
| Oggi h: 15:30 | Poco Nuvoloso | 28 | 18 | 54 | 1018 | 10 | S 18.5 | |
| Oggi h: 15:00 | Poco Nuvoloso | 28 | 19 | 58 | 1020 | 10 | S 22.2 | |
| Oggi h: 14:30 | Poco Nuvoloso | 28 | 19 | 58 | 1018 | 10 | S 18.5 | |
| Oggi h: 14:00 | Poco Nuvoloso | 28 | 19 | 58 | 1019 | 10 | S 22.2 | |
| Oggi h: 13:30 | Poco Nuvoloso | 28 | 19 | 58 | 1019 | 10 | S/SE 27.8 | |
| Oggi h: 13:00 | Poco Nuvoloso | 28 | 18 | 54 | 1020 | 10 | S 33.3 | |
| Oggi h: 12:30 | Poco Nuvoloso | 28 | 18 | 54 | 1020 | 10 | S 33.3 | |
| Oggi h: 10:00 | Poco Nuvoloso | 28 | 18 | 54 | 1021 | 10 | S 18.5 | |
| Oggi h: 09:30 | Poco Nuvoloso | 28 | 18 | 54 | 1021 | 10 | S 13 | |
| Oggi h: 09:00 | Poco Nuvoloso | 27 | 18 | 57 | 1020 | 10 | N 5.5 | |
| Oggi h: 08:30 | Poco Nuvoloso | 27 | 18 | 57 | 1020 | 10 | N 5.5 | |
| Oggi h: 08:00 | Poco Nuvoloso | 26 | 18 | 61 | 1019 | 10 | SE 9.3 | |
| Oggi h: 07:30 | Poco Nuvoloso | 25 | 18 | 65 | 1019 | 10 | S/SE 9.3 | |
| Oggi h: 07:00 | Poco Nuvoloso | 25 | 18 | 65 | 1018 | 10 | E/SE 18.5 | |
| Oggi h: 06:30 | Poco Nuvoloso | 25 | 17 | 61 | 1017 | 10 | SE 18.5 | |
| Oggi h: 06:00 | Poco Nuvoloso | 25 | 17 | 61 | 1018 | 10 | E/SE 24 | |
| Oggi h: 05:30 | Poco Nuvoloso | 25 | 17 | 61 | 1017 | 10 | E/SE 22.2 | |
| Oggi h: 05:00 | Poco Nuvoloso | 25 | 17 | 61 | 1017 | 10 | E/SE 18.5 | |
| Oggi h: 04:30 | Poco Nuvoloso | 25 | 17 | 61 | 1017 | 10 | E/SE 18.5 | |
| Oggi h: 04:00 | Poco Nuvoloso | 25 | 17 | 61 | 1017 | 10 | E/SE 18.5 | |
| Oggi h: 03:00 | Poco Nuvoloso | 22 | 19 | 83 | 1017 | 10 | N 0 | |
| Oggi h: 02:30 | Poco Nuvoloso | 22 | 19 | 83 | 1017 | 10 | N 0 | |
| Oggi h: 02:00 | Poco Nuvoloso | 22 | 19 | 83 | 1017 | 10 | N 0 | |
| Oggi h: 01:30 | Poco Nuvoloso | 22 | 19 | 83 | 1018 | 10 | N 0 | |
| Oggi h: 01:00 | Poco Nuvoloso | 22 | 18 | 78 | 1018 | 10 | N 0 | |
| Oggi h: 00:30 | Poco Nuvoloso | 22 | 19 | 83 | 1018 | 10 | N 0 | |
| Oggi h: 00:00 | Poco Nuvoloso | 23 | 19 | 78 | 1018 | 10 | N 0 | |



